Orbital Elements at Epoch 2459200.5 (2020-Dec-17.0) TDB
Reference: JPL 19 (heliocentric ecliptic J2000)
Element | Value | Uncertainty (1-sigma) | Units |
e | .2605521682131604 | 3.5271e-08 | |
a | 2.333702052643531 | 9.5136e-09 | au |
q | 1.725650922863756 | 8.0639e-08 | au |
i | 10.27777529218541 | 5.1967e-06 | deg |
node | 119.7501698329625 | 2.2439e-05 | deg |
peri | 284.1220165878599 | 2.4991e-05 | deg |
M | 66.50543269718077 | 1.281e-05 | deg |
tp | 2458959.941248111933 (2020-Apr-20.44124811) | 4.553e-05 | TDB |
period | 1302.1665624525 3.57 | 7.9626e-06 2.18e-08 | d yr |
n | .2764623285380453 | 1.6905e-09 | deg/d |
Q | 2.941753182423307 | 1.1992e-08 | au |
|
| | Orbit Determination Parameters
Additional Information
|